Location: Kalisz
(51.7636°N, 18.0893°E)
Time: 19:15:50
(UTC+01:00)

ISS - Visible Passes

Search period start: 22 February 2018 00:00
Search period end: 04 March 2018 00:00
Orbit: 402 x 407 km, 51.6° (Epoch: 23 February)

Date Brightness Start Highest point End Pass type
(mag) Time Alt. Az. Time Alt. Az. Time Alt. Az.
27 Feb -0.8 05:35:01 10° SSE 05:36:23 12° SE 05:37:46 10° ESE visible
01 Mar -1.6 05:25:20 10° SSW 05:27:55 22° SE 05:30:31 10° E visible
02 Mar -1.1 04:34:05 10° S 04:35:50 14° SE 04:37:41 10° ESE visible
03 Mar -2.5 05:16:44 12° SW 05:19:31 36° SSE 05:22:34 10° E visible
